Coronas F rocket - Orbit

View from above orbital plane
View from above orbital plane
View from above satellite
View from above satellite

Ground track
Ground track

The orbit data is extracted from the following two-line orbital elements,

1 26874U 01032B   13142.51762095  .00007751  00000-0  16511-3 0  3833
2 26874 082.4779 029.7314 0019559 039.7515 320.5162 15.44523891660879
Epoch (UTC): 22 May 2013 12:25:22
Eccentricity: 0.0019559
inclination: 82.4779°
perigee height: 419 km
apogee height: 446 km
right ascension of ascending node: 29.7314°
argument of perigee: 39.7515°
revolutions per day: 15.44523891
mean anomaly at epoch: 320.5162°
orbit number at epoch: 66087

The dashed part of the orbit path shows where the satellite is in the earth's shadow,  

Developed and maintained by Chris Peat, Heavens-Above GmbH. Please read the updated FAQ before sending e-mail. Imprint. DLR